{"data":{"norad_id":52283,"epoch":"2026-05-25T02:31:23.224224Z","epoch_age_seconds":61817,"freshness":"FRESH","line1":"1 52283U 22041Y   26145.10512991 -.00001296  00000+0 -63349-4 0  9993","line2":"2 52283  53.2141 126.0764 0001316  63.6375 296.4752 15.08841174225907","mean_motion":15.08841174,"eccentricity":0.0001316,"inclination_deg":53.2141,"raan_deg":126.0764,"arg_perigee_deg":63.6375,"mean_anomaly_deg":296.4752,"bstar":-6.3349e-5,"rev_number":22590,"period_min":95.437480419659,"perigee_km":538.82940793115,"apogee_km":540.65019310505,"semimajor_km":6917.8768005181,"source":"CELESTRAK","updated_at":"2026-05-25T13:38:17.084367Z"}}